Flag for Switzerland Weather past 2 weeks in Wädenswil, Zurich, Switzerland

Now
34 °F

Chilly.


Feels Like: 31 °F
Forecast: 23 / 39 °F
Wind: 3 mph from West

Location: Zurich Town / Ville.

Current Time: Feb 28, 2015 at 12:04:48 AM

Latest Report: Feb 27, 2015 at 11:00 PM


Visibility: N/A

Pressure: 30.21 "Hg

Humidity: 95%

Dew point: 33 °F

Location of WädenswilLocation

Historic Weather in Wädenswil — Graph

°F

Wädenswil temperature yesterday

Maximum temperature yesterday: 36 °F (at 3:00 PM)
Minimum temperature yesterday: 31 °F (at 8:00 AM)
Average temperature yesterday: 35 °F

Past Weeks' High & Low Weather Summary

 TemperatureHumidityPressure
High50 °F (Feb 20, 4:00 PM)100% (Feb 12, 11:00 PM)30.75 "Hg (Feb 12, 11:00 PM)
Low24 °F (Feb 13, 6:00 AM)35% (Feb 20, 4:00 PM)29.58 "Hg (Feb 21, 12:00 PM)
Average34 °F83%30.08 "Hg
* Reported Feb 12 11:00 PM — Feb 27 11:00 PM, Wädenswil, Weather by CustomWeather, © 2015

Note: Actual official high and low records may vary slightly from our data, if they occured in-between our weather recording intervals... More about our weather records

Advertising

Wädenswil weather history for previous 24 hours

 ConditionsComfort  
Time TempWeatherWind HumidityBarometerVisibility
11:00 PM
Fri, Feb 27
34 °FChilly.3 mph95%30.21 "HgN/A
9:00 PM35 °FChilly.5 mph95%30.18 "HgN/A
8:00 PM35 °FChilly.3 mph95%30.17 "HgN/A
7:00 PM35 °FFog.3 mph94%30.14 "HgN/A
6:00 PM35 °FChilly.8 mph96%30.11 "HgN/A
5:00 PM36 °FChilly.9 mph93%30.06 "HgN/A
4:00 PM36 °FChilly.9 mph95%30.03 "HgN/A
3:00 PM36 °FChilly.10 mph95%30.00 "HgN/A
2:00 PM36 °FChilly.8 mph92%29.96 "HgN/A
1:00 PM35 °FOvercast.6 mph95%29.95 "HgN/A
12:00 PM35 °FChilly.7 mph92%29.93 "HgN/A
11:00 AM34 °FChilly.6 mph95%29.92 "HgN/A
10:00 AM33 °FChilly.6 mph96%29.90 "HgN/A
9:00 AM32 °FChilly.2 mph97%29.90 "HgN/A
8:00 AM31 °FChilly.2 mph94%29.90 "HgN/A
7:00 AM35 °FChilly.2 mph66%29.87 "HgN/A
6:00 AM35 °FChilly.6 mph64%29.87 "HgN/A
5:00 AM35 °FChilly.3 mph65%29.87 "HgN/A
3:00 AM35 °FChilly.1 mph59%29.92 "HgN/A
2:00 AM35 °FChilly.1 mph59%29.95 "HgN/A
1:00 AM35 °FChilly.No wind65%29.97 "HgN/A
12:00 AM34 °FChilly.1 mph66%29.98 "HgN/A
Weather by CustomWeather, © 2015

See weather overviewHow to use our weather pages